Погода в Бабушкине

Погода в Бабушкине : погода сейчас, прогноз погоды и архив. Всё, что Вы хотите узнать о погоде в Бабушкине!

Поиск расширенной информации на нашем сайте:

Другие новости

Новости СМИ2

Главная страница сайта

Новости сайта

03.07.2017

Напоминаем, что на нашем специализированном сайте Метеоцентр.Азия вы можете получить высокодетализированные автоматические прогнозы погоды по пунктам России, СНГ и мира в авиационном формате (включающие направление и скорость ветра, видимость, явления погоды, количество и форму облачности, нижнюю и верхнюю границу облачности).


Погода в Бабушкине - сегодня

Время (UTC), дата Ветер
(°,м/с) 
Видим.   Явления Облачность Т
(°С)
Тd
(°С)
f(%) Тe
(°С)
Pmin
(гПа)
dP
(гПа)
Po
(мм)
O2
(г/м3)
Тmin Tmax R s Состояние
почвы
06 20.07.17 060 (СВ) 20000 м    9/0 средняя, верхняя 
[Ac trans|Ci sp]
+18.5 +13.8 74 +27  1005.8  -1.3  715  267           
09 20.07.17 300 (СЗ) 20000 м    9/3 600 м верхняя 
[Cu hum|Ci sp]
+19.4 +14 71 +28  1004.2  -1.3  714  266           
12 20.07.17 300 (СЗ) 20000 м    10/4 600 м кучево-дожд., средняя 
[Cb cap|Ac As]
+15.6 +12.8 83 +22  1005.2  0.3  714  270    +20.2       
18 20.07.17 290 (З) 4{16}  10 км  {гроза, ливн. осадки}  10/5 600 м кучево-дожд., средняя 
[Cb cap|Ac As]
+15.8 +13.3 85 +23  1008.7  -0.2  716  270           
21 20.07.17 290 (З) 10 км    10/8 600 м кучево-дожд., средняя 
[Cb cap|Ac As]
+16.2 +13.4 83 +23  1009.1  0.5  717  270           
00 21.07.17 290 (З) 4{10}  20000 м    6/3 600 м верхняя 
[Sc|Ci sp]
+18.3 +12.5 69 +25  1010.1  1.3  718  269  +14.9    13    влажная 
03 21.07.17 290 (З) 20000 м    6/3 600 м верхняя 
[Sc|Ci sp]
+18.4 +13.3 72 +26  1010.9  0.7  718  268           
06 21.07.17 300 (СЗ) 20000 м    3/3 600 м верхняя 
[Cu med, cong|Ci sp]
+21.2 +11 52 +25  1009.9  -0.4  718  266           
09 21.07.17 290 (З) 20000 м    3/3 600 м верхняя 
[Cu med, cong|Ci sp]
+23.3 +9 40 +24  1008.7  -0.9  717  265           
12 21.07.17 280 (З) 20000 м    9/5 600 м кучево-дожд., верхняя 
[Cb cap|Ci sp]
+19.3 +13.7 70 +29  1009.8  0.4  718  267    +23.8       
15 21.07.17 210 (ЮЗ) 20000 м    8/3 600 м верхняя 
[Sc|Ci sp]
+14.3 +11 81 +19  1012.7  1.8  719  273           
18 21.07.17 290 (З) 20000 м    3/0 верхняя 
[Ci sp]
+17.1 +10.7 66 +21  1012.4  0.2  719  271           
21 21.07.17 290 (З) 20000 м    9/1 600 м верхняя 
[Sc|Ci sp]
+16 +10.5 70 +20  1012.7  719  272           
00 22.07.17 300 (СЗ) 20000 м    9/1 600 м средняя, верхняя 
[Sc|Ac trans|Ci sp]
+16.8 +12.2 74 +22  1013.2  0.7  720  271  +13.4        сухая 
03 22.07.17 300 (СЗ) 20000 м    9/3 600 м средняя, верхняя 
[Sc|Ac trans|Ci sp]
+17.9 +12.7 72 +24  1013.1  0.1  720  270           
06 22.07.17 300 (СЗ) 20000 м    9/3 600 м верхняя 
[Cu hum|Ci sp]
+19.8 +13 65 +27  1012  -0.7  719  268           
09 22.07.17 310 (СЗ) 20000 м    9/1 600 м верхняя 
[Cu med, cong|Ci sp]
+22.9 +11.1 47 +26  1010.6  -0.8  719  265           
12 22.07.17 260 (З) 20000 м    9/5 600 м кучево-дожд., верхняя 
[Cb cap|Ci sp]
+18.4 +12.5 68 +26  1011.5  0.1  719  269    +22.9       
15 22.07.17 250 (З) 20000 м    6/3 600 м кучево-дожд., верхняя 
[Cb cap|Ci sp]
+13.6 +11.4 87 +19  1013.1  0.6  719  274           
18 22.07.17 260 (З) 20000 м    9/0 верхняя 
[Ci sp]
+12.4 +10.4 88 +17  1013.6  0.3  719  275           
21 22.07.17 250 (З) 20000 м    9/0 верхняя 
[Ci sp]
+12.7 +10.5 86 +16  1013.5  719  275           
00 23.07.17 300 (СЗ) 20000 м    9/0 средняя, верхняя 
[Ac trans|Ci sp]
+18.2 +12 67 +25  1013  0.5  720  270  +11.7        сухая 
03 23.07.17 300 (СЗ) 20000 м    6/1 600 м средняя, верхняя 
[Cu hum|Ac trans|Ci sp]
+18.6 +13.5 72 +26  1013.1  0.1  720  269           
06 23.07.17 120 (ЮВ) 20000 м    9/3 600 м средняя, верхняя 
[Cu med, cong|Ac trans|Ci sp]
+19.9 +14.6 72 +30  1012.5  -0.3  720  267           
09 23.07.17 170 (Ю) 20000 м    8/3 600 м верхняя 
[Cu med, cong|Ci sp]
+20 +13.3 65 +27  1011.8  -0.6  719  267           
Время (UTC), дата Ветер
(°,м/с) 
Видим.   Явления Облачность Т
(°С)
Тd
(°С)
f(%) Тe
(°С)
Pmin
(гПа)
dP
(гПа)
Po
(мм)
O2
(г/м3)
Тmin Tmax R s Состояние
почвы

Для получения пояснительной информации подведите курсор к названию столбца.

ПОГОДА в Бабушкине - архив

Всё, что Вы хотите узнать о погоде в Бабушкине - удобно и подробно!

Выберите нужную дату (начиная с 1 января 2015* года) и нажмите кнопку "Найти".
Будут отображены архивные сводки погоды по пункту Бабушкин, начиная с указанной даты.


Отображать данные в формате CSV (для использования в таблицах Excel)


Внимание! Наш архив погоды предназначен исключительно для личного некоммерческого использования в познавательных целях. Если Вам необходимы официальные справки о состоянии погоды (для производственных, юридических, коммерческих и т.п. целей), обращайтесь в органы Росгидромета.

*Примечание: данная дата относится к архиву по метеостанциям СССР (Россия, СНГ, Балтия).
Архив по метеостанциям Зарубежной Европы и Азии (кроме Китая) хранится 10 дней, по другим регионам земного шара (Китай, Африка, Америка, Австралия, Океания) - 1 день.

Бабушкин - район местоположения метеостанции


Название, широта, долгота, высота метеостанции:
Бабушкин 51.7°ш. 105.9°д. 467 м над ур. моря [Российская Федерация]

Дополнительная информация

В oтличие oт бoльшинства пoгoдных сайтoв мы публикуем пoдрoбную метеoинфoрмацию в детальнoм прoфессиoнальнoм фoрмате.

Характеристики температуры и влажнoсти вoздуха измеряются на высoте 2 м в тени вдали oт зданий и деревьев.
Скoрoсть ветра измеряется на высoте 10 м (на урoвне рoста челoвека скoрoсть ветра ниже в 1.5-2 раза). Если метеoстанция нахoдится в гoрoде или в лесу, тo скoрoсть ветра занижена на 2-4 м/с пo сравнению с oткрытым местoм. Скoрoсть ветра над акватoриями крупных рек и oзёр, а также на вершинах хoлмoв на 2-5 м/с выше, чем в oбычных услoвиях.
Атмoсфернoе давление в разных тoчках местнoсти мoжет значительнo oтличаться oт давления на метеoстанции, в зависимoсти oт услoвий рельефа (при пoдъёме на 10 м давление пoнижается примернo на 1 мм рт.ст.).